This is the latest recevied weather packets stored in our database for station/object WB5HZM-3. If no packets are shown the sender has not sent any weather packets the latest 10 day(s).
| Time | Temp. | Humidity | Pressure | Rain* | Wind** | Luminosity | Snow |
|---|---|---|---|---|---|---|---|
| 1777518206 | 25° C | 85% | 1012.4 hPa | 0 mm | - | - | - |
| 1777517606 | 25.56° C | 85% | 1012.5 hPa | 0 mm | - | - | - |
| 1777517002 | 25.56° C | 85% | 1012.4 hPa | 0 mm | - | - | - |
| 1777516397 | 25.56° C | 85% | 1012.4 hPa | 0 mm | - | - | - |
| 1777515797 | 25.56° C | 85% | 1011.5 hPa | 0 mm | - | - | - |
| 1777515209 | 25.56° C | 85% | 1011.4 hPa | 0 mm | - | - | - |
| 1777514603 | 26.11° C | 85% | 1011.4 hPa | 0 mm | - | - | - |
| 1777513998 | 26.11° C | 85% | 1011.3 hPa | 0 mm | - | - | - |
| 1777513396 | 26.11° C | 85% | 1011.1 hPa | 0 mm | - | - | - |
| 1777512812 | 26.11° C | 85% | 1011 hPa | 0 mm | - | - | - |
| 1777511606 | 26.11° C | 85% | 1010.9 hPa | 0 mm | - | - | - |
| 1777510395 | 26.11° C | 84% | 1010.4 hPa | 0 mm | - | - | - |
| 1777509794 | 26.67° C | 84% | 1010.3 hPa | 0 mm | - | - | - |
| 1777505008 | 27.22° C | 82% | 1010.1 hPa | 0 mm | - | - | - |
| 1777502593 | 28.33° C | 79% | 1009.8 hPa | 0 mm | - | - | - |
| 1777502008 | 28.33° C | 79% | 1010.2 hPa | 0 mm | - | - | - |
| 1777501408 | 28.33° C | 78% | 1010.7 hPa | 0 mm | - | - | - |
| 1777500802 | 28.33° C | 77% | 1010.7 hPa | 0 mm | - | - | - |
| 1777500198 | 28.33° C | 77% | 1010.4 hPa | 0 mm | - | - | - |
| 1777498410 | 28.89° C | 75% | 1010.9 hPa | 0 mm | - | - | - |
| 1777497805 | 29.44° C | 74% | 1010.8 hPa | 0 mm | - | - | - |
| 1777496601 | 29.44° C | 72% | 1010.7 hPa | 0 mm | - | - | - |
| 1777495997 | 30° C | 71% | 1010.5 hPa | 0 mm | - | - | - |
| 1777494810 | 30° C | 70% | 1010.6 hPa | 0 mm | - | - | - |
| 1777494205 | 30° C | 70% | 1010.5 hPa | 0 mm | - | - | - |
* Rain latest hour (hover to see other rain measurements)
** Current wind speed in m/s (hover to see current wind gust speed)